"Pseudo-MPEC" for P11TEDW

Created 2024 Apr 22 14:22:07 UT using Find_Orb

Click here for an explanation of pseudo-MPECs

 
 Astrometry: 
     P11TEDW 1C2024 04 16.37879 16 06 59.67 +28 54 46.9    ~4JA7       VNEOCPG96
     P11TEDW 1C2024 04 16.38399 16 06 57.41 +28 54 58.0    ~4JA7       VNEOCPG96
     P11TEDW* C2024 04 18dE?4AstrometryiZ9;K],Cr)YF3HCk`U6NF^redacted;Bhb\SaVF51
     P11TEDW  C2024 04 18AP64I+:`77YApY.rVyX16-1N)6f-QB((2+VkUn$v7_7m^o$NV6`jF51
     P11TEDW  C2024 04 18lQDHY4OeR`0..5^LLwct\3xdihA)2g/ce1vEF0xfuclick`t0yF6F51
     P11TEDW  C2024 04 18vd02wcQ@+rJ_3[KE2JE8[w$V^R@7R0gum8Q4C#8;bKwgJ/8hereoF51
     P11TEDW  C2024 04 18!MmY]+1Wv=AcZ=M.H;RKSmhYD/)-GS.NFforAe+Rv'JD*4b1C0MOF51
     P11TEDW  C2024 04 186ZB$9A3wN5P7=PXexplanation)[e%5w`s2*U31*#F'9!n6P)fAGF51
     P11TEDW KC2024 04 19.01095915 49 05.02 +30 18 15.9    ~4J1M 20.6 GXNEOCPI93
     P11TEDW KC2024 04 19.02373215 48 59.99 +30 18 36.5    ~4J1M 20.9 GXNEOCPI93
     P11TEDW KC2024 04 19.03649415 48 54.88 +30 18 57.0    ~4J1M 20.8 GXNEOCPI93
     P11TEDW KC2024 04 19.29138 15 47 16.306+30 25 41.38   ~4J8b 21.1 GVNEOCPH36
     P11TEDW KC2024 04 19.31716 15 47 06.022+30 26 22.16   ~4J8b 20.9 GVNEOCPH36
     P11TEDW KC2024 04 20.47032 15 39 50.20 +30 53 49.6    ~4KBq 21.6 RVNEOCP291
     P11TEDW KC2024 04 20.47352 15 39 48.95 +30 53 54.0    ~4KBq       VNEOCP291
     P11TEDW KC2024 04 20.47671 15 39 47.80 +30 53 58.0    ~4KBq 21.0 RVNEOCP291
     P11TEDW KC2024 04 22.34884515 28 44.067+31 29 34.76   ~4M97 21.4 GVNEOCPH01
     P11TEDW  C2024 04 22.35563815 28 41.675+31 29 41.40   ~4M97 21.6 GVNEOCPH01
     P11TEDW  C2024 04 22.36136715 28 39.644+31 29 47.04   ~4M97 20.6 GVNEOCPH01
     P11TEDW  C2024 04 22.37080715 28 36.327+31 29 56.19   ~4M97 21.0 GVNEOCPH01

Station data:
(291) LPL/Spacewatch II  (N31.961669 W111.599905)  US/Arizona.  Observers J.
   V. Scotti, R. S. McMillan. 1.8-m f/2.7 reflector + CCD.
(F51) Pan-STARRS 1, Haleakala  (N20.707234 W156.255910)  US/Hawaii.
   Observers J. Bulger, T. Lowe, A. Schultz, M. Willman. Measurers K.
   Chambers, S. Chastel, T. de Boer, L. Denneau, J. Fairlamb, H. Flewelling,
   M. Huber, C.-C. Lin, E. Magnier, Y. Ramanjooloo, R. Wainscoat, R. Weryk.
   1.8-m Ritchey-Chrétien + CCD.
(G96) Mt. Lemmon Survey  (N32.442729 W110.788720)  US/Arizona.  Observer E.
   J. Christensen. 1.5-m reflector + 10K CCD.
(H01) Magdalena Ridge Observatory, Socorro  (N33.984833 W107.189333)  US/New
   Mexico.  Observers W. H. Ryan, E. V. Ryan. Measurer W. H. Ryan. 2.4-m
   f/8.9 reflector + CCD.
(H36) Sandlot Observatory, Scranton  (N38.797718 W95.706550)  US/Kansas.
   Observer G. Hug. 0.56-m reflector + CCD.
(I93) St Pardon de Conques  (N44.558670 W0.202960)  France.  Observers F.
   Losse, W. D'Anna. Measurer F. Losse. 0.40-m f/3.7 reflector + CCD.

Orbital elements:  P11TEDW
   Perihelion 2024 Feb 2.99011 +/- 0.0738 TT = 23:45:45 (JD 2460343.49011)
Epoch 2024 Apr 22.0 TT = JDT 2460422.5   Earth MOID: 0.0761      AutoNEOCP
M  66.66287118 +/- 0.19             (J2000 ecliptic)
n   0.84372816 +/- 0.00174          Peri.  252.21154 +/- 0.022
a   1.10917741 +/- 0.00152          Node   186.97337 +/- 0.032
e   0.6133022 +/- 0.00131           Incl.   24.06881 +/- 0.06
P   1.17/426.67d           H 21.76  G  0.15   U  8.5
q 0.42891637 +/- 0.000863    Q 1.78943844 +/- 0.0039
From 20 observations 2024 Apr. 16-22; mean residual 0".21
Residuals in arcseconds: 
240416 G96  .24-  .19+    240418 F51  .09+  .10-    240420 291  .49-  .10+    
240416 G96  .12+  .32-    240419 I93  .53-  .41+    240420 291  .24+  .05+    
240418 F51  .15-  .17+    240419 I93  .32+  .13+    240422 H01  .01-  .03-    
240418 F51  .09+  .02-    240419 I93  .09+  .14-    240422 H01  .07+  .04-    
240418 F51  .09+  .05+    240419 H36  .33+  .24-    240422 H01  .05-  .01+    
240418 F51  .03-  .05-    240419 H36  .59-  .15+    240422 H01  .11+  .00     
240418 F51  .08+  .06-    240420 291  .00   .23-    

Ephemerides (geocentric):
Date (UTC) HH   RA             Dec           delta  r     elong  mag " sig PA
---- --------  ------------   ------------  ------ ------ -----  --- --------
2024 04 22 14  15 27 24.188   +31 33 20.47  .32631 1.2457 131.5 21.3 .133  12
2024 04 22 15  15 27 10.092   +31 33 59.41  .32667 1.2461 131.5 21.3 .138  12
2024 04 22 16  15 26 56.020   +31 34 38.08  .32704 1.2464 131.5 21.3 .143  12
2024 04 22 17  15 26 41.973   +31 35 16.46  .32741 1.2468 131.5 21.3 .149  12
2024 04 22 18  15 26 27.949   +31 35 54.56  .32778 1.2472 131.6 21.3 .154  12
2024 04 22 19  15 26 13.950   +31 36 32.38  .32815 1.2475 131.6 21.3 .160  12
2024 04 22 20  15 25 59.975   +31 37 09.92  .32852 1.2479 131.6 21.3 .165  12
2024 04 22 21  15 25 46.025   +31 37 47.18  .32889 1.2483 131.6 21.3 .171  12
2024 04 22 22  15 25 32.098   +31 38 24.17  .32926 1.2486 131.6 21.3 .177  12
2024 04 22 23  15 25 18.196   +31 39 00.87  .32963 1.2490 131.6 21.3 .183  13
2024 04 23 00  15 25 04.318   +31 39 37.31  .33000 1.2493 131.7 21.3 .189  13
2024 04 23 01  15 24 50.464   +31 40 13.46  .33037 1.2497 131.7 21.3 .195  13
2024 04 23 02  15 24 36.634   +31 40 49.34  .33074 1.2501 131.7 21.3 .201  13
2024 04 23 03  15 24 22.828   +31 41 24.95  .33111 1.2504 131.7 21.3 .207  13
2024 04 23 04  15 24 09.046   +31 42 00.28  .33148 1.2508 131.7 21.3 .213  13
2024 04 23 05  15 23 55.288   +31 42 35.34  .33185 1.2512 131.7 21.3 .219  13
2024 04 23 06  15 23 41.555   +31 43 10.14  .33223 1.2515 131.8 21.4 .226  13
2024 04 23 07  15 23 27.845   +31 43 44.66  .33260 1.2519 131.8 21.4 .232  13
2024 04 23 08  15 23 14.159   +31 44 18.91  .33297 1.2522 131.8 21.4 .239  13
2024 04 23 09  15 23 00.498   +31 44 52.89  .33335 1.2526 131.8 21.4 .245  13
2024 04 23 10  15 22 46.860   +31 45 26.61  .33372 1.2530 131.8 21.4 .252  13
2024 04 23 11  15 22 33.247   +31 46 00.06  .33409 1.2533 131.8 21.4 .259  13
2024 04 23 12  15 22 19.657   +31 46 33.24  .33447 1.2537 131.8 21.4 .266  13
2024 04 23 13  15 22 06.091   +31 47 06.16  .33484 1.2540 131.9 21.4 .272  13
2024 04 23 14  15 21 52.549   +31 47 38.82  .33522 1.2544 131.9 21.4 .279  13
2024 04 23 15  15 21 39.031   +31 48 11.21  .33559 1.2548 131.9 21.4 .286  13
2024 04 23 16  15 21 25.537   +31 48 43.34  .33597 1.2551 131.9 21.4 .293  13
2024 04 23 17  15 21 12.067   +31 49 15.21  .33635 1.2555 131.9 21.4 .301  13
2024 04 23 18  15 20 58.620   +31 49 46.82  .33672 1.2559 131.9 21.4 .308  13
2024 04 23 19  15 20 45.198   +31 50 18.17  .33710 1.2562 131.9 21.4 .315  13
2024 04 23 20  15 20 31.799   +31 50 49.26  .33747 1.2566 132.0 21.4 .323  13
2024 04 23 21  15 20 18.424   +31 51 20.09  .33785 1.2569 132.0 21.4 .330  13
2024 04 23 22  15 20 05.073   +31 51 50.66  .33823 1.2573 132.0 21.4 .337  13
2024 04 23 23  15 19 51.745   +31 52 20.98  .33861 1.2576 132.0 21.4 .345  13
2024 04 24 00  15 19 38.441   +31 52 51.04  .33899 1.2580 132.0 21.4 .353  13
2024 04 24 01  15 19 25.161   +31 53 20.85  .33936 1.2584 132.0 21.4 .360  14
2024 04 24 02  15 19 11.904   +31 53 50.41  .33974 1.2587 132.0 21.4 .368  14
2024 04 24 03  15 18 58.672   +31 54 19.71  .34012 1.2591 132.0 21.4 .376  14
2024 04 24 04  15 18 45.462   +31 54 48.76  .34050 1.2594 132.1 21.4 .384  14
2024 04 24 05  15 18 32.277   +31 55 17.56  .34088 1.2598 132.1 21.4 .392  14
2024 04 24 06  15 18 19.115   +31 55 46.10  .34126 1.2602 132.1 21.4 .400  14
2024 04 24 07  15 18 05.976   +31 56 14.40  .34164 1.2605 132.1 21.4 .408  14
2024 04 24 08  15 17 52.862   +31 56 42.45  .34202 1.2609 132.1 21.4 .417  14
2024 04 24 09  15 17 39.770   +31 57 10.25  .34240 1.2612 132.1 21.4 .425  14
2024 04 24 10  15 17 26.702   +31 57 37.81  .34278 1.2616 132.1 21.4 .433  14
2024 04 24 11  15 17 13.658   +31 58 05.12  .34317 1.2619 132.1 21.4 .442  14
2024 04 24 12  15 17 00.637   +31 58 32.18  .34355 1.2623 132.1 21.4 .450  14
2024 04 24 13  15 16 47.640   +31 58 59.00  .34393 1.2627 132.2 21.4 .459  14